owner,sensor,date,latitude,longitude,vertical_datum,wind_speed,wind_to_direction,wind_speed_of_gust,qcFlag 
WAVCIS,ioos:station:WAVCIS:CSI03:3,2010-02-01T00:00:00Z,29.4412,-92.0613,10.0,2.769,127.0,,'11111222,11111222,99999999' 
WAVCIS,ioos:station:WAVCIS:CSI03:3,2010-02-01T01:00:00Z,29.4412,-92.0613,10.0,2.64,165.0,,'11111222,11111222,99999999' 
WAVCIS,ioos:station:WAVCIS:CSI03:3,2010-02-01T02:00:00Z,29.4412,-92.0613,10.0,3.245,178.0,,'11111222,11111222,99999999' 
WAVCIS,ioos:station:WAVCIS:CSI03:3,2010-02-01T03:00:00Z,29.4412,-92.0613,10.0,4.087,154.0,,'11111222,11111222,99999999' 
WAVCIS,ioos:station:WAVCIS:CSI03:3,2010-02-01T04:00:00Z,29.4412,-92.0613,10.0,4.957,146.0,,'11111222,11111222,99999999' 
WAVCIS,ioos:station:WAVCIS:CSI03:3,2010-02-01T05:00:00Z,29.4412,-92.0613,10.0,4.237,146.0,,'11111222,11111222,99999999' 
WAVCIS,ioos:station:WAVCIS:CSI03:3,2010-02-01T06:00:00Z,29.4412,-92.0613,10.0,3.533,133.0,,'11111222,11111222,99999999' 
WAVCIS,ioos:station:WAVCIS:CSI03:3,2010-02-01T07:00:00Z,29.4412,-92.0613,10.0,3.252,107.0,,'11111222,11111222,99999999' 
WAVCIS,ioos:station:WAVCIS:CSI03:3,2010-02-01T08:00:00Z,29.4412,-92.0613,10.0,3.458,16.0,,'11111222,11111222,99999999' 
WAVCIS,ioos:station:WAVCIS:CSI03:3,2010-02-01T09:00:00Z,29.4412,-92.0613,10.0,3.023,18.0,,'11111222,11111222,99999999' 
WAVCIS,ioos:station:WAVCIS:CSI03:3,2010-02-01T10:00:00Z,29.4412,-92.0613,10.0,3.682,22.0,,'11111222,11111222,99999999' 
WAVCIS,ioos:station:WAVCIS:CSI03:3,2010-02-01T11:00:00Z,29.4412,-92.0613,10.0,4.415,50.0,,'11111222,11111222,99999999' 
WAVCIS,ioos:station:WAVCIS:CSI03:3,2010-02-01T12:00:00Z,29.4412,-92.0613,10.0,6.043,55.0,,'11111222,11111222,99999999' 
WAVCIS,ioos:station:WAVCIS:CSI03:3,2010-02-01T13:00:00Z,29.4412,-92.0613,10.0,5.451,58.0,,'11111222,11111222,99999999' 
WAVCIS,ioos:station:WAVCIS:CSI03:3,2010-02-01T14:00:00Z,29.4412,-92.0613,10.0,7.58,75.0,,'11111222,11111222,99999999' 
WAVCIS,ioos:station:WAVCIS:CSI03:3,2010-02-01T15:00:00Z,29.4412,-92.0613,10.0,8.03,68.0,,'11111222,11111222,99999999' 
WAVCIS,ioos:station:WAVCIS:CSI03:3,2010-02-01T16:00:00Z,29.4412,-92.0613,10.0,6.417,78.0,,'11111222,11111222,99999999' 
WAVCIS,ioos:station:WAVCIS:CSI03:3,2010-02-01T17:00:00Z,29.4412,-92.0613,10.0,3.972,83.0,,'11111222,11111222,99999999' 
WAVCIS,ioos:station:WAVCIS:CSI03:3,2010-02-01T18:00:00Z,29.4412,-92.0613,10.0,2.431,66.0,,'11111222,11111222,99999999' 
WAVCIS,ioos:station:WAVCIS:CSI03:3,2010-02-01T19:00:00Z,29.4412,-92.0613,10.0,0.954,9.0,,'11111222,11111222,99999999' 
WAVCIS,ioos:station:WAVCIS:CSI03:3,2010-02-01T20:00:00Z,29.4412,-92.0613,10.0,1.312,28.0,,'11111222,11111222,99999999' 
WAVCIS,ioos:station:WAVCIS:CSI03:3,2010-02-01T21:00:00Z,29.4412,-92.0613,10.0,3.078,63.0,,'11111222,11111222,99999999' 
WAVCIS,ioos:station:WAVCIS:CSI03:3,2010-02-01T22:00:00Z,29.4412,-92.0613,10.0,2.389,49.0,,'11111222,11111222,99999999' 
WAVCIS,ioos:station:WAVCIS:CSI03:3,2010-02-01T23:00:00Z,29.4412,-92.0613,10.0,3.688,55.0,,'11111222,11111222,99999999' 
WAVCIS,ioos:station:WAVCIS:CSI03:3,2010-02-02T00:00:00Z,29.4412,-92.0613,10.0,2.307,35.0,,'11111222,11111222,99999999' 
WAVCIS,ioos:station:WAVCIS:CSI03:3,2010-02-02T01:00:00Z,29.4412,-92.0613,10.0,2.646,47.0,,'11111222,11111222,99999999' 
WAVCIS,ioos:station:WAVCIS:CSI03:3,2010-02-02T02:00:00Z,29.4412,-92.0613,10.0,3.174,41.0,,'11111222,11111222,99999999' 
WAVCIS,ioos:station:WAVCIS:CSI03:3,2010-02-02T03:00:00Z,29.4412,-92.0613,10.0,4.523,62.0,,'11111222,11111222,99999999' 
WAVCIS,ioos:station:WAVCIS:CSI03:3,2010-02-02T04:00:00Z,29.4412,-92.0613,10.0,5.063,57.0,,'11111222,11111222,99999999' 
WAVCIS,ioos:station:WAVCIS:CSI03:3,2010-02-02T05:00:00Z,29.4412,-92.0613,10.0,6.017,61.0,,'11111222,11111222,99999999' 
WAVCIS,ioos:station:WAVCIS:CSI03:3,2010-02-02T06:00:00Z,29.4412,-92.0613,10.0,6.296,80.0,,'11111222,11111222,99999999' 
WAVCIS,ioos:station:WAVCIS:CSI03:3,2010-02-02T07:00:00Z,29.4412,-92.0613,10.0,3.433,69.0,,'11111222,11111222,99999999' 
WAVCIS,ioos:station:WAVCIS:CSI03:3,2010-02-02T08:00:00Z,29.4412,-92.0613,10.0,3.419,65.0,,'11111222,11111222,99999999' 
WAVCIS,ioos:station:WAVCIS:CSI03:3,2010-02-02T09:00:00Z,29.4412,-92.0613,10.0,1.84,31.0,,'11111222,11111222,99999999' 
WAVCIS,ioos:station:WAVCIS:CSI03:3,2010-02-02T10:00:00Z,29.4412,-92.0613,10.0,3.294,26.0,,'11111222,11111222,99999999' 
WAVCIS,ioos:station:WAVCIS:CSI03:3,2010-02-02T11:00:00Z,29.4412,-92.0613,10.0,3.45,54.0,,'11111222,11111222,99999999' 
WAVCIS,ioos:station:WAVCIS:CSI03:3,2010-02-02T12:00:00Z,29.4412,-92.0613,10.0,2.609,31.0,,'11111222,11111222,99999999' 
WAVCIS,ioos:station:WAVCIS:CSI03:3,2010-02-02T13:00:00Z,29.4412,-92.0613,10.0,3.401,29.0,,'11111222,11111222,99999999' 
WAVCIS,ioos:station:WAVCIS:CSI03:3,2010-02-02T14:00:00Z,29.4412,-92.0613,10.0,3.935,58.0,,'11111222,11111222,99999999' 
WAVCIS,ioos:station:WAVCIS:CSI03:3,2010-02-02T15:00:00Z,29.4412,-92.0613,10.0,3.073,42.0,,'11111222,11111222,99999999' 
WAVCIS,ioos:station:WAVCIS:CSI03:3,2010-02-02T16:00:00Z,29.4412,-92.0613,10.0,4.022,56.0,,'11111222,11111222,99999999' 
WAVCIS,ioos:station:WAVCIS:CSI03:3,2010-02-02T17:00:00Z,29.4412,-92.0613,10.0,2.33,51.0,,'11111222,11111222,99999999' 
WAVCIS,ioos:station:WAVCIS:CSI03:3,2010-02-02T18:00:00Z,29.4412,-92.0613,10.0,2.388,17.0,,'11111222,11111222,99999999' 
WAVCIS,ioos:station:WAVCIS:CSI03:3,2010-02-02T19:00:00Z,29.4412,-92.0613,10.0,4.202,26.0,,'11111222,11111222,99999999' 
WAVCIS,ioos:station:WAVCIS:CSI03:3,2010-02-02T20:00:00Z,29.4412,-92.0613,10.0,2.302,43.0,,'11111222,11111222,99999999' 
WAVCIS,ioos:station:WAVCIS:CSI03:3,2010-02-02T21:00:00Z,29.4412,-92.0613,10.0,2.964,55.0,,'11111222,11111222,99999999' 
WAVCIS,ioos:station:WAVCIS:CSI03:3,2010-02-02T22:00:00Z,29.4412,-92.0613,10.0,1.779,3.0,,'11111222,11111222,99999999' 
WAVCIS,ioos:station:WAVCIS:CSI03:3,2010-02-02T23:00:00Z,29.4412,-92.0613,10.0,3.378,359.0,,'11111222,11111222,99999999' 
WAVCIS,ioos:station:WAVCIS:CSI03:3,2010-02-03T00:00:00Z,29.4412,-92.0613,10.0,2.099,307.0,,'11111222,11111222,99999999' 
WAVCIS,ioos:station:WAVCIS:CSI03:3,2010-02-03T01:00:00Z,29.4412,-92.0613,10.0,4.24,333.0,,'11111222,11111222,99999999' 
WAVCIS,ioos:station:WAVCIS:CSI03:3,2010-02-03T02:00:00Z,29.4412,-92.0613,10.0,3.508,13.0,,'11111222,11111222,99999999' 
WAVCIS,ioos:station:WAVCIS:CSI03:3,2010-02-03T03:00:00Z,29.4412,-92.0613,10.0,3.293,49.0,,'11111222,11111222,99999999' 
WAVCIS,ioos:station:WAVCIS:CSI03:3,2010-02-03T04:00:00Z,29.4412,-92.0613,10.0,4.847,56.0,,'11111222,11111222,99999999' 
WAVCIS,ioos:station:WAVCIS:CSI03:3,2010-02-03T05:00:00Z,29.4412,-92.0613,10.0,4.842,56.0,,'11111222,11111222,99999999' 
WAVCIS,ioos:station:WAVCIS:CSI03:3,2010-02-03T06:00:00Z,29.4412,-92.0613,10.0,5.905,56.0,,'11111222,11111222,99999999' 
WAVCIS,ioos:station:WAVCIS:CSI03:3,2010-02-03T07:00:00Z,29.4412,-92.0613,10.0,6.759,56.0,,'11111222,11111222,99999999' 
WAVCIS,ioos:station:WAVCIS:CSI03:3,2010-02-03T08:00:00Z,29.4412,-92.0613,10.0,7.42,58.0,,'11111222,11111222,99999999' 
WAVCIS,ioos:station:WAVCIS:CSI03:3,2010-02-03T09:00:00Z,29.4412,-92.0613,10.0,8.55,61.0,,'11111222,11111222,99999999' 
WAVCIS,ioos:station:WAVCIS:CSI03:3,2010-02-03T10:00:00Z,29.4412,-92.0613,10.0,9.95,60.0,,'11111222,11111222,99999999' 
WAVCIS,ioos:station:WAVCIS:CSI03:3,2010-02-03T11:00:00Z,29.4412,-92.0613,10.0,8.53,67.0,,'11111222,11111222,99999999' 
WAVCIS,ioos:station:WAVCIS:CSI03:3,2010-02-03T12:00:00Z,29.4412,-92.0613,10.0,7.43,76.0,,'11111222,11111222,99999999' 
WAVCIS,ioos:station:WAVCIS:CSI03:3,2010-02-03T13:00:00Z,29.4412,-92.0613,10.0,8.51,62.0,,'11111222,11111222,99999999' 
WAVCIS,ioos:station:WAVCIS:CSI03:3,2010-02-03T14:00:00Z,29.4412,-92.0613,10.0,9.24,70.0,,'11111222,11111222,99999999' 
WAVCIS,ioos:station:WAVCIS:CSI03:3,2010-02-03T15:00:00Z,29.4412,-92.0613,10.0,9.29,70.0,,'11111222,11111222,99999999' 
WAVCIS,ioos:station:WAVCIS:CSI03:3,2010-02-03T16:00:00Z,29.4412,-92.0613,10.0,10.99,74.0,,'11111222,11111222,99999999' 
WAVCIS,ioos:station:WAVCIS:CSI03:3,2010-02-03T17:00:00Z,29.4412,-92.0613,10.0,8.81,93.0,,'11111222,11111222,99999999' 
WAVCIS,ioos:station:WAVCIS:CSI03:3,2010-02-03T18:00:00Z,29.4412,-92.0613,10.0,9.79,85.0,,'11111222,11111222,99999999' 
WAVCIS,ioos:station:WAVCIS:CSI03:3,2010-02-03T19:00:00Z,29.4412,-92.0613,10.0,9.1,73.0,,'11111222,11111222,99999999' 
WAVCIS,ioos:station:WAVCIS:CSI03:3,2010-02-03T20:00:00Z,29.4412,-92.0613,10.0,8.93,80.0,,'11111222,11111222,99999999' 
WAVCIS,ioos:station:WAVCIS:CSI03:3,2010-02-03T21:00:00Z,29.4412,-92.0613,10.0,6.514,92.0,,'11111222,11111222,99999999' 
WAVCIS,ioos:station:WAVCIS:CSI03:3,2010-02-03T22:00:00Z,29.4412,-92.0613,10.0,7.82,104.0,,'11111222,11111222,99999999' 
WAVCIS,ioos:station:WAVCIS:CSI03:3,2010-02-03T23:00:00Z,29.4412,-92.0613,10.0,7.18,97.0,,'11111222,11111222,99999999' 
WAVCIS,ioos:station:WAVCIS:CSI03:3,2010-02-04T00:00:00Z,29.4412,-92.0613,10.0,9.26,89.0,,'11111222,11111222,99999999' 
WAVCIS,ioos:station:WAVCIS:CSI03:3,2010-02-04T01:00:00Z,29.4412,-92.0613,10.0,8.19,82.0,,'11111222,11111222,99999999' 
WAVCIS,ioos:station:WAVCIS:CSI03:3,2010-02-04T02:00:00Z,29.4412,-92.0613,10.0,8.4,80.0,,'11111222,11111222,99999999' 
WAVCIS,ioos:station:WAVCIS:CSI03:3,2010-02-04T03:00:00Z,29.4412,-92.0613,10.0,10.9,85.0,,'11111222,11111222,99999999' 
WAVCIS,ioos:station:WAVCIS:CSI03:3,2010-02-04T04:00:00Z,29.4412,-92.0613,10.0,12.13,85.0,,'11111222,11111222,99999999' 
WAVCIS,ioos:station:WAVCIS:CSI03:3,2010-02-04T05:00:00Z,29.4412,-92.0613,10.0,11.42,82.0,,'11111222,11111222,99999999' 
WAVCIS,ioos:station:WAVCIS:CSI03:3,2010-02-04T06:00:00Z,29.4412,-92.0613,10.0,9.27,72.0,,'11111222,11111222,99999999' 
WAVCIS,ioos:station:WAVCIS:CSI03:3,2010-02-04T07:00:00Z,29.4412,-92.0613,10.0,10.58,61.0,,'11111222,11111222,99999999' 
WAVCIS,ioos:station:WAVCIS:CSI03:3,2010-02-04T08:00:00Z,29.4412,-92.0613,10.0,12.3,60.0,,'11111222,11111222,99999999' 
WAVCIS,ioos:station:WAVCIS:CSI03:3,2010-02-04T09:00:00Z,29.4412,-92.0613,10.0,13.58,63.0,,'11111222,11111222,99999999' 
WAVCIS,ioos:station:WAVCIS:CSI03:3,2010-02-04T10:00:00Z,29.4412,-92.0613,10.0,12.54,66.0,,'11111222,11111222,99999999' 
WAVCIS,ioos:station:WAVCIS:CSI03:3,2010-02-04T11:00:00Z,29.4412,-92.0613,10.0,12.67,70.0,,'11111222,11111222,99999999' 
WAVCIS,ioos:station:WAVCIS:CSI03:3,2010-02-04T12:00:00Z,29.4412,-92.0613,10.0,12.95,76.0,,'11111222,11111222,99999999' 
WAVCIS,ioos:station:WAVCIS:CSI03:3,2010-02-04T13:00:00Z,29.4412,-92.0613,10.0,12.91,86.0,,'11111222,11111222,99999999' 
WAVCIS,ioos:station:WAVCIS:CSI03:3,2010-02-04T14:00:00Z,29.4412,-92.0613,10.0,11.09,81.0,,'11111222,11111222,99999999' 
WAVCIS,ioos:station:WAVCIS:CSI03:3,2010-02-04T15:00:00Z,29.4412,-92.0613,10.0,15.58,90.0,,'11111222,11111222,99999999' 
WAVCIS,ioos:station:WAVCIS:CSI03:3,2010-02-04T16:00:00Z,29.4412,-92.0613,10.0,13.45,82.0,,'11111222,11111222,99999999' 
WAVCIS,ioos:station:WAVCIS:CSI03:3,2010-02-04T17:00:00Z,29.4412,-92.0613,10.0,14.07,81.0,,'11111222,11111222,99999999' 
WAVCIS,ioos:station:WAVCIS:CSI03:3,2010-02-04T18:00:00Z,29.4412,-92.0613,10.0,13.68,100.0,,'11111222,11111222,99999999' 
WAVCIS,ioos:station:WAVCIS:CSI03:3,2010-02-04T19:00:00Z,29.4412,-92.0613,10.0,13.08,91.0,,'11111222,11111222,99999999' 
WAVCIS,ioos:station:WAVCIS:CSI03:3,2010-02-04T20:00:00Z,29.4412,-92.0613,10.0,9.87,93.0,,'11111222,11111222,99999999' 
WAVCIS,ioos:station:WAVCIS:CSI03:3,2010-02-04T21:00:00Z,29.4412,-92.0613,10.0,5.846,91.0,,'11111222,11111222,99999999' 
WAVCIS,ioos:station:WAVCIS:CSI03:3,2010-02-04T22:00:00Z,29.4412,-92.0613,10.0,6.616,350.0,,'11111222,11111222,99999999' 
WAVCIS,ioos:station:WAVCIS:CSI03:3,2010-02-04T23:00:00Z,29.4412,-92.0613,10.0,5.562,350.0,,'11111222,11111222,99999999' 
WAVCIS,ioos:station:WAVCIS:CSI03:3,2010-02-05T00:00:00Z,29.4412,-92.0613,10.0,2.18,357.0,,'11111222,11111222,99999999' 
WAVCIS,ioos:station:WAVCIS:CSI03:3,2010-02-05T01:00:00Z,29.4412,-92.0613,10.0,3.344,10.0,,'11111222,11111222,99999999' 
WAVCIS,ioos:station:WAVCIS:CSI03:3,2010-02-05T02:00:00Z,29.4412,-92.0613,10.0,4.369,14.0,,'11111222,11111222,99999999' 
WAVCIS,ioos:station:WAVCIS:CSI03:3,2010-02-05T03:00:00Z,29.4412,-92.0613,10.0,2.714,60.0,,'11111222,11111222,99999999' 
WAVCIS,ioos:station:WAVCIS:CSI03:3,2010-02-05T04:00:00Z,29.4412,-92.0613,10.0,3.379,99.0,,'11111222,11111222,99999999' 
WAVCIS,ioos:station:WAVCIS:CSI03:3,2010-02-05T05:00:00Z,29.4412,-92.0613,10.0,5.03,317.0,,'11111222,11111222,99999999' 
WAVCIS,ioos:station:WAVCIS:CSI03:3,2010-02-05T06:00:00Z,29.4412,-92.0613,10.0,4.155,320.0,,'11111222,11111222,99999999' 
WAVCIS,ioos:station:WAVCIS:CSI03:3,2010-02-05T07:00:00Z,29.4412,-92.0613,10.0,4.041,319.0,,'11111222,11111222,99999999' 
WAVCIS,ioos:station:WAVCIS:CSI03:3,2010-02-05T08:00:00Z,29.4412,-92.0613,10.0,3.751,318.0,,'11111222,11111222,99999999' 
WAVCIS,ioos:station:WAVCIS:CSI03:3,2010-02-05T09:00:00Z,29.4412,-92.0613,10.0,4.252,317.0,,'11111222,11111222,99999999' 
WAVCIS,ioos:station:WAVCIS:CSI03:3,2010-02-05T10:00:00Z,29.4412,-92.0613,10.0,1.798,313.0,,'11111222,11111222,99999999' 
WAVCIS,ioos:station:WAVCIS:CSI03:3,2010-02-05T11:00:00Z,29.4412,-92.0613,10.0,5.816,316.0,,'11111222,11111222,99999999' 
WAVCIS,ioos:station:WAVCIS:CSI03:3,2010-02-05T12:00:00Z,29.4412,-92.0613,10.0,4.5,307.0,,'11111222,11111222,99999999' 
WAVCIS,ioos:station:WAVCIS:CSI03:3,2010-02-05T13:00:00Z,29.4412,-92.0613,10.0,3.477,305.0,,'11111222,11111222,99999999' 
WAVCIS,ioos:station:WAVCIS:CSI03:3,2010-02-05T14:00:00Z,29.4412,-92.0613,10.0,4.263,294.0,,'11111222,11111222,99999999' 
WAVCIS,ioos:station:WAVCIS:CSI03:3,2010-02-05T15:00:00Z,29.4412,-92.0613,10.0,4.641,298.0,,'11111222,11111222,99999999' 
WAVCIS,ioos:station:WAVCIS:CSI03:3,2010-02-05T16:00:00Z,29.4412,-92.0613,10.0,7.12,315.0,,'11111222,11111222,99999999' 
WAVCIS,ioos:station:WAVCIS:CSI03:3,2010-02-05T17:00:00Z,29.4412,-92.0613,10.0,4.467,310.0,,'11111222,11111222,99999999' 
WAVCIS,ioos:station:WAVCIS:CSI03:3,2010-02-05T18:00:00Z,29.4412,-92.0613,10.0,5.247,314.0,,'11111222,11111222,99999999' 
WAVCIS,ioos:station:WAVCIS:CSI03:3,2010-02-05T19:00:00Z,29.4412,-92.0613,10.0,5.316,313.0,,'11111222,11111222,99999999' 
WAVCIS,ioos:station:WAVCIS:CSI03:3,2010-02-05T20:00:00Z,29.4412,-92.0613,10.0,9.69,287.0,,'11111222,11111222,99999999' 
WAVCIS,ioos:station:WAVCIS:CSI03:3,2010-02-05T21:00:00Z,29.4412,-92.0613,10.0,8.13,289.0,,'11111222,11111222,99999999' 
WAVCIS,ioos:station:WAVCIS:CSI03:3,2010-02-05T22:00:00Z,29.4412,-92.0613,10.0,5.726,296.0,,'11111222,11111222,99999999' 
WAVCIS,ioos:station:WAVCIS:CSI03:3,2010-02-05T23:00:00Z,29.4412,-92.0613,10.0,6.896,318.0,,'11111222,11111222,99999999' 
WAVCIS,ioos:station:WAVCIS:CSI03:3,2010-02-06T00:00:00Z,29.4412,-92.0613,10.0,5.268,319.0,,'11111222,11111222,99999999' 
WAVCIS,ioos:station:WAVCIS:CSI03:3,2010-02-06T01:00:00Z,29.4412,-92.0613,10.0,6.604,319.0,,'11111222,11111222,99999999' 
WAVCIS,ioos:station:WAVCIS:CSI03:3,2010-02-06T02:00:00Z,29.4412,-92.0613,10.0,6.873,344.0,,'11111222,11111222,99999999' 
WAVCIS,ioos:station:WAVCIS:CSI03:3,2010-02-06T03:00:00Z,29.4412,-92.0613,10.0,4.513,335.0,,'11111222,11111222,99999999' 
WAVCIS,ioos:station:WAVCIS:CSI03:3,2010-02-06T04:00:00Z,29.4412,-92.0613,10.0,3.882,328.0,,'11111222,11111222,99999999' 
WAVCIS,ioos:station:WAVCIS:CSI03:3,2010-02-06T05:00:00Z,29.4412,-92.0613,10.0,3.467,324.0,,'11111222,11111222,99999999' 
WAVCIS,ioos:station:WAVCIS:CSI03:3,2010-02-06T06:00:00Z,29.4412,-92.0613,10.0,4.077,283.0,,'11111222,11111222,99999999' 
WAVCIS,ioos:station:WAVCIS:CSI03:3,2010-02-06T07:00:00Z,29.4412,-92.0613,10.0,5.029,287.0,,'11111222,11111222,99999999' 
WAVCIS,ioos:station:WAVCIS:CSI03:3,2010-02-06T08:00:00Z,29.4412,-92.0613,10.0,7.68,319.0,,'11111222,11111222,99999999' 
WAVCIS,ioos:station:WAVCIS:CSI03:3,2010-02-06T09:00:00Z,29.4412,-92.0613,10.0,3.891,315.0,,'11111222,11111222,99999999' 
WAVCIS,ioos:station:WAVCIS:CSI03:3,2010-02-06T10:00:00Z,29.4412,-92.0613,10.0,5.632,300.0,,'11111222,11111222,99999999' 
WAVCIS,ioos:station:WAVCIS:CSI03:3,2010-02-06T11:00:00Z,29.4412,-92.0613,10.0,5.64,303.0,,'11111222,11111222,99999999' 
WAVCIS,ioos:station:WAVCIS:CSI03:3,2010-02-06T12:00:00Z,29.4412,-92.0613,10.0,8.21,318.0,,'11111222,11111222,99999999' 
WAVCIS,ioos:station:WAVCIS:CSI03:3,2010-02-06T13:00:00Z,29.4412,-92.0613,10.0,9.68,331.0,,'11111222,11111222,99999999' 
WAVCIS,ioos:station:WAVCIS:CSI03:3,2010-02-06T14:00:00Z,29.4412,-92.0613,10.0,8.56,333.0,,'11111222,11111222,99999999' 
WAVCIS,ioos:station:WAVCIS:CSI03:3,2010-02-06T15:00:00Z,29.4412,-92.0613,10.0,8.25,357.0,,'11111222,11111222,99999999' 
WAVCIS,ioos:station:WAVCIS:CSI03:3,2010-02-06T16:00:00Z,29.4412,-92.0613,10.0,6.767,3.0,,'11111222,11111222,99999999' 
WAVCIS,ioos:station:WAVCIS:CSI03:3,2010-02-06T17:00:00Z,29.4412,-92.0613,10.0,5.699,0.0,,'11111222,11111222,99999999' 
WAVCIS,ioos:station:WAVCIS:CSI03:3,2010-02-06T18:00:00Z,29.4412,-92.0613,10.0,6.398,352.0,,'11111222,11111222,99999999' 
WAVCIS,ioos:station:WAVCIS:CSI03:3,2010-02-06T19:00:00Z,29.4412,-92.0613,10.0,5.647,352.0,,'11111222,11111222,99999999' 
WAVCIS,ioos:station:WAVCIS:CSI03:3,2010-02-06T20:00:00Z,29.4412,-92.0613,10.0,5.46,3.0,,'11111222,11111222,99999999' 
WAVCIS,ioos:station:WAVCIS:CSI03:3,2010-02-06T21:00:00Z,29.4412,-92.0613,10.0,5.997,3.0,,'11111222,11111222,99999999' 
WAVCIS,ioos:station:WAVCIS:CSI03:3,2010-02-06T22:00:00Z,29.4412,-92.0613,10.0,5.798,5.0,,'11111222,11111222,99999999' 
WAVCIS,ioos:station:WAVCIS:CSI03:3,2010-02-06T23:00:00Z,29.4412,-92.0613,10.0,5.893,8.0,,'11111222,11111222,99999999' 
WAVCIS,ioos:station:WAVCIS:CSI03:3,2010-02-07T00:00:00Z,29.4412,-92.0613,10.0,6.578,14.0,,'11111222,11111222,99999999' 
WAVCIS,ioos:station:WAVCIS:CSI03:3,2010-02-07T01:00:00Z,29.4412,-92.0613,10.0,6.21,20.0,,'11111222,11111222,99999999' 
WAVCIS,ioos:station:WAVCIS:CSI03:3,2010-02-07T02:00:00Z,29.4412,-92.0613,10.0,5.641,45.0,,'11111222,11111222,99999999' 
WAVCIS,ioos:station:WAVCIS:CSI03:3,2010-02-07T03:00:00Z,29.4412,-92.0613,10.0,4.736,43.0,,'11111222,11111222,99999999' 
WAVCIS,ioos:station:WAVCIS:CSI03:3,2010-02-07T04:00:00Z,29.4412,-92.0613,10.0,4.899,36.0,,'11111222,11111222,99999999' 
WAVCIS,ioos:station:WAVCIS:CSI03:3,2010-02-07T05:00:00Z,29.4412,-92.0613,10.0,6.255,50.0,,'11111222,11111222,99999999' 
WAVCIS,ioos:station:WAVCIS:CSI03:3,2010-02-07T06:00:00Z,29.4412,-92.0613,10.0,7.01,56.0,,'11111222,11111222,99999999' 
WAVCIS,ioos:station:WAVCIS:CSI03:3,2010-02-07T07:00:00Z,29.4412,-92.0613,10.0,7.2,55.0,,'11111222,11111222,99999999' 
WAVCIS,ioos:station:WAVCIS:CSI03:3,2010-02-07T08:00:00Z,29.4412,-92.0613,10.0,6.771,58.0,,'11111222,11111222,99999999' 
WAVCIS,ioos:station:WAVCIS:CSI03:3,2010-02-07T09:00:00Z,29.4412,-92.0613,10.0,5.564,56.0,,'11111222,11111222,99999999' 
WAVCIS,ioos:station:WAVCIS:CSI03:3,2010-02-07T10:00:00Z,29.4412,-92.0613,10.0,6.015,57.0,,'11111222,11111222,99999999' 
WAVCIS,ioos:station:WAVCIS:CSI03:3,2010-02-07T11:00:00Z,29.4412,-92.0613,10.0,5.574,58.0,,'11111222,11111222,99999999' 
WAVCIS,ioos:station:WAVCIS:CSI03:3,2010-02-07T12:00:00Z,29.4412,-92.0613,10.0,5.637,58.0,,'11111222,11111222,99999999' 
WAVCIS,ioos:station:WAVCIS:CSI03:3,2010-02-07T13:00:00Z,29.4412,-92.0613,10.0,5.368,59.0,,'11111222,11111222,99999999' 
WAVCIS,ioos:station:WAVCIS:CSI03:3,2010-02-07T14:00:00Z,29.4412,-92.0613,10.0,5.097,70.0,,'11111222,11111222,99999999' 
WAVCIS,ioos:station:WAVCIS:CSI03:3,2010-02-07T15:00:00Z,29.4412,-92.0613,10.0,5.326,61.0,,'11111222,11111222,99999999' 
WAVCIS,ioos:station:WAVCIS:CSI03:3,2010-02-07T16:00:00Z,29.4412,-92.0613,10.0,3.863,64.0,,'11111222,11111222,99999999' 
WAVCIS,ioos:station:WAVCIS:CSI03:3,2010-02-07T17:00:00Z,29.4412,-92.0613,10.0,3.193,65.0,,'11111222,11111222,99999999' 
WAVCIS,ioos:station:WAVCIS:CSI03:3,2010-02-07T18:00:00Z,29.4412,-92.0613,10.0,2.723,74.0,,'11111222,11111222,99999999' 
WAVCIS,ioos:station:WAVCIS:CSI03:3,2010-02-07T19:00:00Z,29.4412,-92.0613,10.0,1.612,117.0,,'11111222,11111222,99999999' 
WAVCIS,ioos:station:WAVCIS:CSI03:3,2010-02-07T20:00:00Z,29.4412,-92.0613,10.0,1.481,175.0,,'11111222,11111222,99999999' 
WAVCIS,ioos:station:WAVCIS:CSI03:3,2010-02-07T21:00:00Z,29.4412,-92.0613,10.0,2.42,178.0,,'11111222,11111222,99999999' 
WAVCIS,ioos:station:WAVCIS:CSI03:3,2010-02-07T22:00:00Z,29.4412,-92.0613,10.0,3.774,179.0,,'11111222,11111222,99999999' 
WAVCIS,ioos:station:WAVCIS:CSI03:3,2010-02-07T23:00:00Z,29.4412,-92.0613,10.0,3.273,179.0,,'11111222,11111222,99999999' 
WAVCIS,ioos:station:WAVCIS:CSI03:3,2010-02-08T00:00:00Z,29.4412,-92.0613,10.0,3.596,150.0,,'11111222,11111222,99999999' 
WAVCIS,ioos:station:WAVCIS:CSI03:3,2010-02-08T01:00:00Z,29.4412,-92.0613,10.0,5.307,119.0,,'11111222,11111222,99999999' 
WAVCIS,ioos:station:WAVCIS:CSI03:3,2010-02-08T02:00:00Z,29.4412,-92.0613,10.0,5.42,132.0,,'11111222,11111222,99999999' 
WAVCIS,ioos:station:WAVCIS:CSI03:3,2010-02-08T03:00:00Z,29.4412,-92.0613,10.0,5.542,134.0,,'11111222,11111222,99999999' 
WAVCIS,ioos:station:WAVCIS:CSI03:3,2010-02-08T04:00:00Z,29.4412,-92.0613,10.0,6.131,139.0,,'11111222,11111222,99999999' 
WAVCIS,ioos:station:WAVCIS:CSI03:3,2010-02-08T05:00:00Z,29.4412,-92.0613,10.0,7.84,142.0,,'11111222,11111222,99999999' 
WAVCIS,ioos:station:WAVCIS:CSI03:3,2010-02-08T06:00:00Z,29.4412,-92.0613,10.0,8.63,143.0,,'11111222,11111222,99999999' 
WAVCIS,ioos:station:WAVCIS:CSI03:3,2010-02-08T07:00:00Z,29.4412,-92.0613,10.0,8.78,134.0,,'11111222,11111222,99999999' 
WAVCIS,ioos:station:WAVCIS:CSI03:3,2010-02-08T08:00:00Z,29.4412,-92.0613,10.0,8.38,133.0,,'11111222,11111222,99999999' 
WAVCIS,ioos:station:WAVCIS:CSI03:3,2010-02-08T09:00:00Z,29.4412,-92.0613,10.0,6.931,115.0,,'11111222,11111222,99999999' 
WAVCIS,ioos:station:WAVCIS:CSI03:3,2010-02-08T10:00:00Z,29.4412,-92.0613,10.0,6.912,121.0,,'11111222,11111222,99999999' 
WAVCIS,ioos:station:WAVCIS:CSI03:3,2010-02-08T11:00:00Z,29.4412,-92.0613,10.0,7.19,120.0,,'11111222,11111222,99999999' 
WAVCIS,ioos:station:WAVCIS:CSI03:3,2010-02-08T12:00:00Z,29.4412,-92.0613,10.0,6.757,117.0,,'11111222,11111222,99999999' 
WAVCIS,ioos:station:WAVCIS:CSI03:3,2010-02-08T13:00:00Z,29.4412,-92.0613,10.0,6.272,125.0,,'11111222,11111222,99999999' 
WAVCIS,ioos:station:WAVCIS:CSI03:3,2010-02-08T14:00:00Z,29.4412,-92.0613,10.0,7.24,114.0,,'11111222,11111222,99999999' 
WAVCIS,ioos:station:WAVCIS:CSI03:3,2010-02-08T15:00:00Z,29.4412,-92.0613,10.0,7.67,119.0,,'11111222,11111222,99999999' 
WAVCIS,ioos:station:WAVCIS:CSI03:3,2010-02-08T16:00:00Z,29.4412,-92.0613,10.0,8.14,118.0,,'11111222,11111222,99999999' 
WAVCIS,ioos:station:WAVCIS:CSI03:3,2010-02-08T17:00:00Z,29.4412,-92.0613,10.0,8.14,127.0,,'11111222,11111222,99999999' 
WAVCIS,ioos:station:WAVCIS:CSI03:3,2010-02-08T18:00:00Z,29.4412,-92.0613,10.0,7.44,128.0,,'11111222,11111222,99999999' 
WAVCIS,ioos:station:WAVCIS:CSI03:3,2010-02-08T19:00:00Z,29.4412,-92.0613,10.0,5.955,134.0,,'11111222,11111222,99999999' 
WAVCIS,ioos:station:WAVCIS:CSI03:3,2010-02-08T20:00:00Z,29.4412,-92.0613,10.0,7.4,134.0,,'11111222,11111222,99999999' 
WAVCIS,ioos:station:WAVCIS:CSI03:3,2010-02-08T21:00:00Z,29.4412,-92.0613,10.0,7.89,129.0,,'11111222,11111222,99999999' 
WAVCIS,ioos:station:WAVCIS:CSI03:3,2010-02-08T22:00:00Z,29.4412,-92.0613,10.0,6.542,128.0,,'11111222,11111222,99999999' 
WAVCIS,ioos:station:WAVCIS:CSI03:3,2010-02-08T23:00:00Z,29.4412,-92.0613,10.0,6.468,124.0,,'11111222,11111222,99999999' 
WAVCIS,ioos:station:WAVCIS:CSI03:3,2010-02-09T00:00:00Z,29.4412,-92.0613,10.0,7.23,125.0,,'11111222,11111222,99999999' 
WAVCIS,ioos:station:WAVCIS:CSI03:3,2010-02-09T01:00:00Z,29.4412,-92.0613,10.0,8.8,125.0,,'11111222,11111222,99999999' 
WAVCIS,ioos:station:WAVCIS:CSI03:3,2010-02-09T02:00:00Z,29.4412,-92.0613,10.0,8.53,124.0,,'11111222,11111222,99999999' 
WAVCIS,ioos:station:WAVCIS:CSI03:3,2010-02-09T03:00:00Z,29.4412,-92.0613,10.0,6.735,121.0,,'11111222,11111222,99999999' 
WAVCIS,ioos:station:WAVCIS:CSI03:3,2010-02-09T04:00:00Z,29.4412,-92.0613,10.0,2.937,83.0,,'11111222,11111222,99999999' 
WAVCIS,ioos:station:WAVCIS:CSI03:3,2010-02-09T05:00:00Z,29.4412,-92.0613,10.0,4.419,172.0,,'11111222,11111222,99999999' 